[[{"header":{"parameterUnit":"m.s-1","parameterCategory":1,"la1":30.2991,"la2":30.254,"lo1":-89.0895,"lo2":-89.0444,"dy":0.0017,"dx":0.0017,"nx":28,"ny":28,"refTime":"2024-12-10T09:00:00:Z","depth":0,"parameterNumber":2,"parameterNumberName":"U-component_of_WINDS"},"data":[0,0,0,0,0,0,0,0,0,0,0,0,0,0,0,0,0,0,0,0,0,0,0,0,0,0,0,0,0,0,0,0,0,0,0,0,0,0,0,0,0,0,0,0,0,0,0,0,0,0,0,0,0,0,0,0,0,0,0.7685,0.7685,0,0.7666,0.7666,0.7665,0.7632,0.7631,0.7631,0.763,0.7611,0.7611,0.7612,0,0,0,0,0,0,0,0,0,0,0,0,0,0.7696,0.7696,0.7685,0.7685,0.7685,0.7666,0.7666,0.7665,0.7632,0.7631,0.7631,0.763,0.7611,0.7611,0.7612,0,0,0,0,0,0,0,0,0,0,0,0,0,0.7685,0.7696,0.7685,0.7666,0.7664,0.7666,0.7666,0.7665,0.7632,0.7631,0.763,0.763,0.7611,0.7611,0.7612,0.7631,0,0,0.7612,0.7612,0,0,0,0,0,0,0,0,0.7686,0.7685,0.7669,0.7667,0.7665,0.765,0.7662,0.7654,0.7633,0.7644,0.763,0.7629,0.7625,0.7624,0.7623,0.763,0.7629,0.7612,0.7612,0.7612,0.7612,0,0,0,0,0,0,0,0.7687,0.7685,0.7678,0.7669,0.7667,0.7659,0.7656,0.766,0.764,0.7643,0.7641,0.7639,0.7624,0.7622,0.7622,0.7629,0.7612,0.7612,0.7612,0.7612,0.7654,0.7655,0,0,0,0,0,0,0.769,0.7686,0.7678,0.7677,0.7673,0.7659,0.7657,0.7656,0.764,0.7637,0.764,0.7637,0.7623,0.7622,0.7621,0.7644,0.7612,0.7612,0.7612,0.7653,0.7654,0.7655,0,0,0,0,0,0,0.769,0.769,0.7679,0.7681,0.7679,0.766,0.766,0.7656,0.7655,0.7637,0.7634,0.7642,0.7622,0.7621,0.7629,0.7643,0.7612,0.7612,0.7651,0.7653,0.7654,0.769,0,0,0,0,0,0,0.7691,0.769,0.7697,0.7681,0.7679,0.7687,0.7661,0.7656,0.7655,0.7652,0.7639,0.7635,0.7621,0.7629,0.7629,0.7643,0.7612,0.765,0.7652,0.7654,0.7688,0.7693,0.7697,0,0,0,0,0,0.7691,0.7707,0.7697,0.7696,0.7687,0.7688,0.7687,0.7669,0.7656,0.7663,0.7652,0.7636,0.7641,0.763,0.763,0.7644,0.7649,0.7651,0.7654,0.7685,0.7692,0.7697,0,0,0,0,0,0,0.7725,0.7705,0.7693,0.7705,0.7698,0.7682,0.7691,0.7676,0.7674,0.7671,0.765,0.7647,0.7659,0.7652,0.764,0.7663,0.7643,0.7645,0.7667,0.7673,0.7677,0.7679,0.7613,0,0,0,0,0,0.7733,0.7735,0.7718,0.773,0.7727,0.771,0.7709,0.7697,0.7689,0.7686,0.7676,0.767,0.767,0.7671,0.767,0.7686,0.7684,0.7695,0.77,0.7704,0.7707,0.7716,0.7722,0.7662,0.7662,0.7662,0,0,0.7751,0.7741,0.7743,0.7736,0.773,0.7733,0.7707,0.7711,0.7714,0.7687,0.7694,0.7687,0.7678,0.7691,0.7696,0.7686,0.7723,0.7707,0.771,0.7711,0.7719,0.7725,0.773,0.7664,0.7664,0.7663,0,0,0.7786,0.7778,0.7787,0.7782,0.7772,0.776,0.7763,0.7749,0.7743,0.775,0.773,0.7733,0.7734,0.7729,0.7727,0.7761,0.7747,0.7761,0.7786,0.7796,0.7801,0.7805,0.7819,0.7824,0.7764,0.7764,0.7764,0,0.781,0.7814,0.7794,0.78,0.7798,0.7774,0.7784,0.778,0.777,0.777,0.7758,0.776,0.7752,0.7764,0.7773,0.7771,0.7774,0.7763,0.7802,0.7805,0.7809,0.7822,0.7827,0.7766,0.7766,0.7766,0.7765,0,0.7844,0.7847,0.7856,0.7848,0.7847,0.7855,0.7838,0.784,0.7827,0.7817,0.7826,0.7816,0.7814,0.7815,0.7803,0.7826,0.782,0.7805,0.7785,0.7817,0.7829,0.7834,0.7769,0.7768,0.7768,0.7767,0,0,0.7899,0.7881,0.7885,0.7882,0.787,0.7872,0.788,0.7877,0.788,0.7874,0.7881,0.7883,0.7869,0.7867,0.7854,0.7862,0.7892,0.7846,0.7846,0.7857,0.7919,0.7931,0.7937,0.7882,0.7883,0.7883,0.792,0,0.7933,0.7944,0.7928,0.7944,0.7947,0.7924,0.7931,0.7925,0.7916,0.7918,0.7908,0.791,0.7891,0.789,0.7897,0.7887,0.7904,0.7884,0.7889,0.7889,0.7893,0.7943,0.7956,0.7991,0.7924,0.7925,0.7926,0,0.7973,0.7971,0.7987,0.7975,0.7976,0.7982,0.798,0.7981,0.7974,0.7967,0.7965,0.795,0.7957,0.7937,0.7948,0.7934,0.7935,0.7931,0.7932,0.7933,0.791,0.7947,0.8001,0.8007,0.7932,0.7932,0.7931,0,0.8014,0.8014,0.8024,0.8022,0.8008,0.8014,0.8008,0.8,0.8001,0.7998,0.7998,0.7997,0.7996,0.7996,0.7981,0.7967,0.7994,0.7972,0.799,0.799,0.7997,0.7997,0.8055,0.7996,0.7996,0.7996,0.7995,0,0.8054,0.8065,0.8043,0.8049,0.8062,0.8043,0.8056,0.8048,0.8041,0.8046,0.8026,0.8031,0.8011,0.8014,0.8003,0.8014,0.8014,0.8009,0.8006,0.8012,0.8013,0.8013,0.8011,0.7997,0.7997,0.7996,0.7996,0,0.8102,0.8087,0.8097,0.8084,0.8081,0.8091,0.8079,0.8085,0.8075,0.8082,0.8082,0.8066,0.8069,0.8054,0.8055,0.8047,0.8065,0.8057,0.8068,0.8066,0.8085,0.8084,0.8145,0.8153,0.8088,0.8089,0.8089,0,0.8129,0.8137,0.8125,0.8127,0.8123,0.8126,0.8127,0.8108,0.811,0.8103,0.811,0.8111,0.8112,0.8118,0.8107,0.8107,0.81,0.8122,0.81,0.8106,0.8102,0.8103,0.8104,0.8127,0.8127,0.8128,0.8129,0,0.8179,0.8172,0.8173,0.8172,0.8173,0.8171,0.8168,0.8171,0.8151,0.8154,0.8157,0.8157,0.8158,0.816,0.8159,0.8153,0.8139,0.8135,0.814,0.8146,0.8153,0.8151,0.8081,0.8134,0.8134,0.8133,0.8133,0.8133,0.8218,0.8225,0.8218,0.8221,0.8217,0.8214,0.822,0.8211,0.8213,0.8212,0.8201,0.8207,0.8201,0.8197,0.8194,0.8198,0.8188,0.8194,0.8196,0.8198,0.8202,0.8151,0.8197,0.8197,0.8197,0.8197,0.8197,0,0.8269,0.8263,0.8266,0.8263,0.8265,0.825,0.8246,0.8249,0.8254,0.825,0.8251,0.8255,0.8257,0.8247,0.8248,0.8253,0.8247,0.8254,0.8255,0.8254,0.821,0.8207,0.826,0.826,0.826,0.826,0.826,0.826,0.8295,0.8307,0.8299,0.8309,0.8303,0.8309,0.8308,0.8306,0.8303,0.8309,0.8311,0.8304,0.8297,0.8298,0.8299,0.8296,0.8298,0.8309,0.8303,0.8263,0.8257,0.8251,0.8248,0.8309,0.8309,0.8347,0.8348,0.8348]},{"header":{"parameterUnit":"m.s-1","parameterCategory":1,"la1":30.2991,"la2":30.254,"lo1":-89.0895,"lo2":-89.0444,"dy":0.0017,"dx":0.0017,"nx":28,"ny":28,"refTime":"2024-12-10T09:00:00:Z","depth":0,"parameterNumber":3,"parameterNumberName":"V-component_of_WINDS"},"data":[0,0,0,0,0,0,0,0,0,0,0,0,0,0,0,0,0,0,0,0,0,0,0,0,0,0,0,0,0,0,0,0,0,0,0,0,0,0,0,0,0,0,0,0,0,0,0,0,0,0,0,0,0,0,0,0,0,0,4.5346,4.5347,0,4.5447,4.5448,4.5449,4.5449,4.5447,4.5446,4.5445,4.5546,4.555,4.5554,0,0,0,0,0,0,0,0,0,0,0,0,0,4.5154,4.5158,4.5346,4.5347,4.5349,4.5446,4.5448,4.5449,4.5449,4.5447,4.5446,4.5444,4.5545,4.555,4.5554,0,0,0,0,0,0,0,0,0,0,0,0,0,4.5244,4.5159,4.5346,4.536,4.5363,4.5446,4.5448,4.545,4.5449,4.5447,4.5445,4.5444,4.5544,4.5549,4.5555,4.5631,0,0,4.5573,4.5576,0,0,0,0,0,0,0,0,4.5239,4.5251,4.5357,4.5359,4.5362,4.5433,4.5417,4.551,4.545,4.5416,4.5445,4.5443,4.551,4.5519,4.5542,4.5635,4.564,4.5574,4.5577,4.558,4.5581,0,0,0,0,0,0,0,4.5233,4.5247,4.5386,4.5358,4.5362,4.5362,4.5373,4.5435,4.5473,4.5419,4.5419,4.5431,4.5511,4.5536,4.5544,4.5641,4.5573,4.5579,4.5582,4.5585,4.5805,4.5807,0,0,0,0,0,0,4.5224,4.5242,4.5383,4.5389,4.5295,4.5367,4.5379,4.5412,4.5472,4.548,4.5433,4.5431,4.5527,4.5537,4.5548,4.5643,4.558,4.5585,4.5589,4.5803,4.5805,4.5808,0,0,0,0,0,0,4.522,4.5237,4.5378,4.5316,4.5334,4.5372,4.541,4.5415,4.544,4.5483,4.5489,4.5451,4.5526,4.554,4.5611,4.5646,4.5588,4.5593,4.58,4.5803,4.5807,4.5832,0,0,0,0,0,0,4.5214,4.5235,4.5264,4.5316,4.5337,4.544,4.5412,4.5419,4.5451,4.5449,4.5502,4.5509,4.5525,4.5602,4.5617,4.5653,4.5598,4.5797,4.5801,4.5806,4.5828,4.5835,4.5842,0,0,0,0,0,4.5208,4.5266,4.5265,4.5282,4.5374,4.5442,4.5454,4.5472,4.5453,4.5483,4.5511,4.5507,4.5639,4.5609,4.5626,4.5665,4.5795,4.58,4.5805,4.5825,4.5834,4.5842,0,0,0,0,0,0,4.5215,4.5273,4.5273,4.535,4.5391,4.5442,4.548,4.5481,4.5528,4.5525,4.5545,4.5557,4.5629,4.5653,4.5619,4.5742,4.5715,4.5724,4.5724,4.5733,4.574,4.5734,4.5603,0,0,0,0,0,4.5226,4.5277,4.5324,4.5387,4.5408,4.544,4.5471,4.5482,4.5525,4.5542,4.5575,4.5617,4.5669,4.5702,4.5751,4.5831,4.5844,4.5866,4.5873,4.5878,4.5886,4.5933,4.5945,4.5825,4.5825,4.5825,0,0,4.5249,4.5286,4.5317,4.539,4.5423,4.5476,4.5455,4.5511,4.555,4.555,4.5621,4.5646,4.5695,4.5772,4.5807,4.5794,4.5922,4.5885,4.5889,4.5894,4.594,4.5951,4.5961,4.5829,4.5828,4.5827,0,0,4.5318,4.535,4.5408,4.5443,4.5494,4.5515,4.5529,4.558,4.5598,4.5669,4.5671,4.5718,4.5805,4.5841,4.587,4.5955,4.5954,4.597,4.6008,4.6054,4.6063,4.6072,4.6104,4.6116,4.5977,4.5977,4.5978,0,4.5339,4.5419,4.5438,4.5495,4.5528,4.5532,4.5591,4.5623,4.5688,4.5711,4.5696,4.5808,4.584,4.5927,4.5948,4.597,4.5988,4.5965,4.606,4.6069,4.6077,4.6109,4.6121,4.5979,4.5979,4.5979,4.5979,0,4.5445,4.55,4.554,4.5605,4.5642,4.57,4.5728,4.5764,4.5772,4.5795,4.5868,4.5908,4.5967,4.5987,4.5995,4.6076,4.6067,4.6056,4.6029,4.609,4.612,4.6132,4.5982,4.5981,4.5981,4.598,0,0,4.5521,4.5597,4.5611,4.5642,4.57,4.5743,4.5801,4.586,4.5892,4.5936,4.5987,4.6062,4.6053,4.6086,4.6098,4.6137,4.6206,4.6122,4.6123,4.6138,4.6301,4.6311,4.6324,4.6205,4.6207,4.6209,4.6298,0,4.5598,4.5704,4.5724,4.5816,4.5869,4.5874,4.5925,4.5966,4.599,4.6038,4.6064,4.6118,4.61,4.6121,4.616,4.6189,4.6239,4.6182,4.6254,4.6256,4.6244,4.634,4.635,4.6432,4.6309,4.6311,4.6313,0,4.5702,4.5752,4.585,4.5904,4.5926,4.5972,4.6029,4.6075,4.6122,4.6137,4.6175,4.6183,4.6245,4.6214,4.6301,4.6263,4.6293,4.6312,4.6315,4.6325,4.629,4.6354,4.6458,4.6471,4.6331,4.6329,4.6328,0,4.5752,4.5843,4.5914,4.594,4.6003,4.6036,4.6064,4.6109,4.6144,4.6193,4.6217,4.6272,4.6303,4.6346,4.6368,4.6343,4.6455,4.6425,4.647,4.647,4.6495,4.6493,4.6608,4.651,4.651,4.651,4.6509,0,4.5838,4.5898,4.5938,4.5982,4.6051,4.6073,4.614,4.6167,4.6208,4.6258,4.6264,4.6311,4.6337,4.6388,4.6405,4.6477,4.6489,4.6504,4.6509,4.6505,4.6504,4.6527,4.6523,4.6513,4.6512,4.6512,4.6511,0,4.5906,4.5934,4.6013,4.6067,4.6083,4.6131,4.6177,4.6221,4.6245,4.6308,4.6324,4.6361,4.6422,4.6448,4.6522,4.6534,4.6616,4.6615,4.6601,4.6603,4.6647,4.6644,4.6783,4.6803,4.6689,4.669,4.6691,0,4.596,4.6007,4.6067,4.6102,4.6131,4.6186,4.6223,4.6246,4.6284,4.6343,4.638,4.644,4.649,4.6586,4.662,4.6677,4.6679,4.6724,4.6688,4.6684,4.6683,4.6681,4.6687,4.6731,4.6732,4.6733,4.6734,0,4.6054,4.6066,4.6119,4.6178,4.6221,4.6268,4.6314,4.6341,4.6372,4.6414,4.6477,4.6516,4.6592,4.6653,4.6713,4.6741,4.6744,4.6745,4.6759,4.6757,4.6748,4.6756,4.6622,4.6742,4.6741,4.6741,4.674,4.674,4.6118,4.6162,4.6212,4.6271,4.6308,4.6352,4.6396,4.6426,4.6479,4.6545,4.6555,4.6622,4.667,4.6751,4.6782,4.6835,4.6824,4.6843,4.6849,4.6854,4.6858,4.6738,4.6845,4.6845,4.6845,4.6845,4.6845,0,4.6215,4.6248,4.6302,4.6368,4.6415,4.6413,4.6464,4.6504,4.6563,4.6608,4.6658,4.6731,4.6791,4.683,4.689,4.6925,4.6928,4.6941,4.694,4.6947,4.6863,4.6846,4.6938,4.6938,4.6938,4.6938,4.6938,4.6938,4.6271,4.6346,4.6365,4.6458,4.649,4.6558,4.6587,4.6628,4.6664,4.6746,4.6796,4.6822,4.6865,4.6929,4.6984,4.6994,4.7017,4.7031,4.704,4.6962,4.6952,4.6943,4.6928,4.7035,4.7035,4.712,4.7121,4.7121]}]]